TimeEST,TemperatureF,Dew PointF,Humidity,Sea Level PressureIn,VisibilityMPH,Wind Direction,Wind SpeedMPH,Gust SpeedMPH,PrecipitationIn,Events,Conditions,WindDirDegrees,DateUTC
12:15 AM,13.5,1.4,59,30.28,10.0,North,-9999.0,-,N/A,,Clear,0,2014-01-28 05:15:00
12:35 AM,12.9,1.2,60,30.27,10.0,North,-9999.0,-,N/A,,Clear,0,2014-01-28 05:35:00
12:55 AM,12.7,1.0,60,30.27,10.0,North,-9999.0,-,N/A,,Clear,0,2014-01-28 05:55:00
1:15 AM,12.2,0.5,60,30.27,10.0,North,-9999.0,-,N/A,,Clear,0,2014-01-28 06:15:00
1:35 AM,11.8,0.1,59,30.29,10.0,North,-9999.0,-,N/A,,Clear,0,2014-01-28 06:35:00
1:55 AM,11.3,0.1,61,30.29,10.0,North,-9999.0,-,N/A,,Scattered Clouds,0,2014-01-28 06:55:00
2:15 AM,10.9,-0.4,60,30.29,10.0,North,-9999.0,-,N/A,,Mostly Cloudy,0,2014-01-28 07:15:00
2:35 AM,10.9,-0.2,61,30.28,10.0,North,-9999.0,-,N/A,,Overcast,0,2014-01-28 07:35:00
2:55 AM,10.9,-0.0,61,30.28,10.0,North,-9999.0,-,N/A,,Overcast,0,2014-01-28 07:55:00
3:15 AM,10.6,0.3,63,30.29,10.0,North,-9999.0,-,N/A,,Mostly Cloudy,0,2014-01-28 08:15:00
3:35 AM,10.4,-0.4,62,30.29,10.0,North,-9999.0,-,N/A,,Mostly Cloudy,0,2014-01-28 08:35:00
3:55 AM,10.2,-0.6,62,30.28,10.0,North,-9999.0,-,N/A,,Mostly Cloudy,0,2014-01-28 08:55:00
4:15 AM,9.9,-0.6,63,30.28,10.0,North,-9999.0,-,N/A,,Mostly Cloudy,0,2014-01-28 09:15:00
4:35 AM,10.0,-0.6,62,30.29,10.0,North,-9999.0,-,N/A,,Mostly Cloudy,0,2014-01-28 09:35:00
4:55 AM,9.9,-0.4,63,30.30,10.0,North,-9999.0,-,N/A,,Mostly Cloudy,0,2014-01-28 09:55:00
5:15 AM,10.0,0.3,65,30.31,10.0,North,-9999.0,-,N/A,,Overcast,0,2014-01-28 10:15:00
5:35 AM,9.9,-0.4,63,30.31,10.0,North,-9999.0,-,N/A,,Overcast,0,2014-01-28 10:35:00
5:55 AM,9.9,0.9,67,30.31,10.0,North,-9999.0,-,N/A,,Scattered Clouds,0,2014-01-28 10:55:00
6:15 AM,9.9,1.0,68,30.32,10.0,North,-9999.0,-,N/A,,Mostly Cloudy,0,2014-01-28 11:15:00
6:35 AM,9.7,0.7,67,30.32,10.0,North,-9999.0,-,N/A,,Overcast,0,2014-01-28 11:35:00
6:55 AM,9.5,0.7,67,30.32,10.0,North,-9999.0,-,N/A,,Overcast,0,2014-01-28 11:55:00
7:15 AM,9.5,0.9,68,30.32,10.0,North,-9999.0,-,N/A,,Overcast,0,2014-01-28 12:15:00
7:35 AM,9.5,1.0,69,30.32,10.0,North,-9999.0,-,N/A,,Overcast,0,2014-01-28 12:35:00
7:55 AM,9.5,0.7,67,30.32,10.0,North,-9999.0,-,N/A,,Overcast,0,2014-01-28 12:55:00
8:15 AM,9.5,0.9,68,30.31,10.0,North,-9999.0,-,N/A,,Overcast,0,2014-01-28 13:15:00
8:35 AM,9.9,0.9,67,30.32,10.0,North,-9999.0,-,N/A,,Overcast,0,2014-01-28 13:35:00
8:55 AM,10.2,0.9,66,30.32,10.0,North,-9999.0,-,N/A,,Overcast,0,2014-01-28 13:55:00
9:15 AM,10.8,1.4,66,30.32,10.0,North,-9999.0,-,N/A,,Overcast,0,2014-01-28 14:15:00
9:35 AM,10.9,0.5,63,30.33,10.0,North,-9999.0,-,N/A,,Overcast,0,2014-01-28 14:35:00
9:55 AM,11.3,0.5,62,30.33,10.0,North,-9999.0,-,N/A,,Overcast,0,2014-01-28 14:55:00
10:55 AM,12.9,0.5,58,30.33,10.0,North,-9999.0,-,N/A,,Overcast,0,2014-01-28 15:55:00
11:15 AM,13.5,0.9,57,30.32,10.0,North,-9999.0,-,N/A,,Overcast,0,2014-01-28 16:15:00
11:35 AM,13.8,0.7,56,30.32,10.0,North,-9999.0,-,N/A,,Overcast,0,2014-01-28 16:35:00
11:55 AM,14.7,0.7,54,30.32,10.0,North,-9999.0,-,N/A,,Overcast,0,2014-01-28 16:55:00
12:15 PM,14.9,1.6,56,30.30,10.0,North,-9999.0,-,N/A,,Overcast,0,2014-01-28 17:15:00
12:35 PM,15.1,1.0,54,30.29,10.0,North,-9999.0,-,N/A,,Overcast,0,2014-01-28 17:35:00
12:55 PM,15.8,1.6,54,30.27,10.0,North,-9999.0,-,N/A,,Overcast,0,2014-01-28 17:55:00
1:15 PM,16.5,2.3,54,30.26,10.0,North,-9999.0,-,N/A,,Overcast,0,2014-01-28 18:15:00
1:35 PM,16.2,1.0,51,30.25,10.0,North,-9999.0,-,N/A,,Overcast,0,2014-01-28 18:35:00
1:55 PM,17.1,2.8,54,30.24,10.0,North,-9999.0,-,N/A,,Overcast,0,2014-01-28 18:55:00
2:15 PM,17.1,1.9,52,30.24,10.0,North,-9999.0,-,N/A,,Overcast,0,2014-01-28 19:15:00
2:35 PM,16.9,2.1,52,30.23,10.0,North,-9999.0,-,N/A,,Overcast,0,2014-01-28 19:35:00
2:55 PM,17.1,4.1,57,30.23,10.0,North,-9999.0,-,N/A,,Overcast,0,2014-01-28 19:55:00
3:15 PM,16.5,5.0,61,30.23,4.0,North,-9999.0,-,N/A,Snow,Light Snow,0,2014-01-28 20:15:00
3:35 PM,16.5,5.7,63,30.24,10.0,North,-9999.0,-,N/A,,Overcast,0,2014-01-28 20:35:00
3:55 PM,15.8,7.9,71,30.23,2.5,North,-9999.0,-,N/A,Snow,Light Snow,0,2014-01-28 20:55:00
4:15 PM,15.6,8.4,73,30.24,3.0,North,-9999.0,-,N/A,Snow,Light Snow,0,2014-01-28 21:15:00
4:35 PM,14.7,8.6,77,30.23,1.2,North,-9999.0,-,N/A,Snow,Light Snow,0,2014-01-28 21:35:00
4:55 PM,14.4,10.0,83,30.24,1.0,North,-9999.0,-,N/A,Snow,Light Snow,0,2014-01-28 21:55:00
5:15 PM,14.2,10.4,85,30.24,1.2,North,-9999.0,-,N/A,Snow,Light Snow,0,2014-01-28 22:15:00
5:35 PM,14.0,10.4,86,30.23,0.8,North,-9999.0,-,N/A,Snow,Light Snow,0,2014-01-28 22:35:00
5:55 PM,13.6,10.9,89,30.23,1.0,North,-9999.0,-,N/A,Snow,Snow,0,2014-01-28 22:55:00
6:15 PM,13.1,10.2,88,30.23,1.5,North,-9999.0,-,N/A,Snow,Light Snow,0,2014-01-28 23:15:00
6:35 PM,12.7,9.5,87,30.24,1.2,North,-9999.0,-,N/A,Snow,Light Snow,0,2014-01-28 23:35:00
6:55 PM,12.6,9.5,88,30.24,1.5,North,-9999.0,-,N/A,Snow,Light Snow,0,2014-01-28 23:55:00
7:15 PM,12.9,10.0,88,30.23,1.5,North,-9999.0,-,N/A,Snow,Light Snow,0,2014-01-29 00:15:00
7:35 PM,12.7,10.2,90,30.23,1.5,North,-9999.0,-,N/A,Snow,Light Snow,0,2014-01-29 00:35:00
7:55 PM,12.6,10.2,90,30.23,1.2,North,-9999.0,-,N/A,Snow,Snow,0,2014-01-29 00:55:00
8:15 PM,12.2,9.5,89,30.23,1.8,North,-9999.0,-,N/A,Snow,Light Snow,0,2014-01-29 01:15:00
8:35 PM,12.0,9.5,90,30.23,1.5,North,-9999.0,-,N/A,Snow,Light Snow,0,2014-01-29 01:35:00
8:55 PM,11.8,9.3,90,30.23,2.0,North,-9999.0,-,N/A,Snow,Light Snow,0,2014-01-29 01:55:00
9:15 PM,11.8,9.1,89,30.23,2.0,North,-9999.0,-,N/A,Snow,Light Snow,0,2014-01-29 02:15:00
9:35 PM,11.5,8.8,89,30.23,2.0,North,-9999.0,-,N/A,Snow,Light Snow,0,2014-01-29 02:35:00
9:55 PM,11.3,8.6,89,30.23,4.0,North,-9999.0,-,N/A,Snow,Light Snow,0,2014-01-29 02:55:00
10:15 PM,11.3,8.1,87,30.23,3.0,North,-9999.0,-,N/A,Snow,Light Snow,0,2014-01-29 03:15:00
10:35 PM,11.1,8.1,87,30.24,2.0,North,-9999.0,-,N/A,Snow,Light Snow,0,2014-01-29 03:35:00
10:55 PM,10.9,8.1,88,30.24,4.0,North,-9999.0,-,N/A,Snow,Light Snow,0,2014-01-29 03:55:00
11:15 PM,9.3,7.0,90,30.24,1.8,North,-9999.0,-,N/A,Snow,Light Snow,0,2014-01-29 04:15:00
11:35 PM,8.8,6.8,92,30.24,4.0,North,-9999.0,-,N/A,Snow,Light Snow,0,2014-01-29 04:35:00
11:55 PM,7.7,5.9,92,30.24,5.0,North,-9999.0,-,N/A,Snow,Light Snow,0,2014-01-29 04:55:00